Location: Coupvray
(48.8929°N, 2.7967°E)
Time: 13:59:43
(UTC+00:00)

Altair 2 - Pass Details

Date: 20 January 2021
Orbit: 837 x 949 km, 90.2° (Epoch: 28 February)

Event Time Altitude Azimuth Distance (km) Brightness Sun altitude
Rises 06:02:32 0° 3° (N) 3,438 10.8 -14.6°
Reaches altitude 10° 06:04:56 10° 6° (N) 2,511 10.1 -14.2°
Maximum altitude 06:10:34 71° 90° (E) 928 8.1 -13.3°
Drops below altitude 10° 06:16:20 10° 175° (S) 2,566 10.5 -12.4°
Sets 06:18:48 0° 177° (S) 3,519 11.2 -12.0°
